Location: Hylvaty SDH
(49.9612°N, 16.4057°E)
Time: 20:44:24
(UTC+01:00)

Vanguard 1 Rocket - Pass Details

Date: 04 October 2020
Orbit: 656 x 4221 km, 34.3° (Epoch: 30 October)

Event Time Altitude Azimuth Distance (km) Brightness Sun altitude
Rises 00:24:01 0° 275° (W) 7,094 12.1 -44.3°
Reaches altitude 10° 00:30:15 10° 262° (W) 6,580 11.7 -44.4°
Enters shadow 00:39:34 20° 237° (WSW) 6,284 11.3 -44.5°
Maximum altitude 00:44:32 21° 223° (SW) 6,348 - -44.5°
Drops below altitude 10° 01:00:35 10° 184° (S) 7,332 - -44.3°
Sets 01:08:29 0° 171° (S) 8,082 - -44.2°
